星链-5140 (STARLINK-5140 )

导读

STARLINK-5140是美国SpaceX公司星链星座的成员卫星,于2023年3月29日发射升空,隶属于SpaceX全球低轨卫星互联网组网计划。该卫星运行在近地轨道,轨道倾角43.000°,近地点约482公里,属于星链V1.0平台,旨在为全球尤其是偏远地区提供高速低延迟互联网服务,助力缩小数字鸿沟,同时也可为商业航运、航空及应急通信等场景提供通信支持。

基本信息
目录编号:
56147
目录名称:
STARLINK-5140
国际标识:
2023-046BH
轨道中心:
EARTH
卫星名称:
星链-5140
卫星全名:
星链-5140 (STARLINK-5140 )
卫星状态:
已陨落 最后检测时间 2026-07-04
发射日期:
2023-03-29 UTC
国别 :
美国 (US)
星等 :
--
该卫星已列入 空间交会检测服务 Space Conjunction Data Service (SCDS) ,当前飞行风险评估等级: 无高风险
轨道信息
数据来源 国际轨道数据
星历时间: 2026-07-04T22:12:13+0800
轨道信息已过期69天
半长轴: 6537.106km
偏心率: 0.0003736
轨道倾角: 42.991°
近地点辐角 269.964°
升交点赤经 147.683°
平近点角 90.083°
近地点: 156.526km
远地点: 161.412km
周期: 87.667分钟
每日圈数: 16.425725
详细信息
固有亮度:
5
最大亮度:
2.5
卫星平台:
Starlink v1.5
覆盖范围:
全球
运营商:
太空探索技术公司
运营商所在国:
美国
制造商(研发单位):
太空探索技术公司
制造商所在国:
美国
使用方式:
暂无
卫星简介
星链(Starlink)计划是由太空探索技术公司(SpaceX)提出的一个巨型低轨卫星互联网星座项目,计划在2019年至2024年间在太空搭建由约1.2万颗卫星组成的“星链”网络,其中1584颗将部署在地球上空550千米处的近地轨道,并从2020年开始工作。该卫星仍在工作。
与全量物体交会距离演化趋势
与全量物体交会风险概率演化趋势